Voltar ao catálogo

FENGYUN 1C DEB

AtivoSSO
NORAD 30335·DEBRIS·🇨🇳 China

Lançado May 10, 1999 de Taiyuan Satellite Launch Center

Loading…

Próximas Passagens (próximas 24 horas)

TLE

AtualizadoSource: Space-Track

Época: Sep 14, 2026, 10:24 UTC

1 30335U 99025AAW 26257.43358431  .00000551  00000-0  36187-3 0  9991
2 30335  98.9264 247.3959 0136415  85.8723  67.7810 14.01508249  4496

Acompanhe FENGYUN 1C DEB em tempo real com AllMySat

Download on the App Store